Time,TemperatureF,DewpointF,PressureIn,WindDirection,WindDirectionDegrees,WindSpeedMPH,WindSpeedGustMPH,Humidity,HourlyPrecipIn,Conditions,Clouds,dailyrainin,SoftwareType,DateUTC
2013-06-13 00:11:00,59.9,53.7,29.80,NW,325,0.0,3.0,80,0.00,,---,0.02,VWS V14.01,2013-06-13 04:11:00,
2013-06-13 00:16:00,59.9,53.7,29.80,NNW,328,0.0,3.0,80,0.00,,---,0.02,VWS V14.01,2013-06-13 04:16:00,
2013-06-13 00:17:00,59.9,53.7,29.80,West,277,0.0,3.0,80,0.00,,---,0.02,VWS V14.01,2013-06-13 04:17:00,
2013-06-13 00:21:00,59.9,53.4,29.80,North,349,0.0,3.0,79,0.00,,---,0.02,VWS V14.01,2013-06-13 04:21:00,
2013-06-13 00:23:00,59.9,53.4,29.80,WNW,300,0.0,3.0,79,0.00,,---,0.02,VWS V14.01,2013-06-13 04:23:00,
2013-06-13 00:26:00,60.0,53.5,29.80,WNW,302,0.0,3.0,79,0.00,,---,0.02,VWS V14.01,2013-06-13 04:26:00,
2013-06-13 00:27:00,60.0,53.5,29.80,NNW,328,1.0,3.0,79,0.00,,---,0.02,VWS V14.01,2013-06-13 04:27:00,
2013-06-13 00:29:00,60.0,53.1,29.80,North,349,0.0,1.0,78,0.00,,---,0.02,VWS V14.01,2013-06-13 04:29:00,
2013-06-13 00:32:00,60.1,53.2,29.80,WNW,294,1.0,2.0,78,0.00,,---,0.02,VWS V14.01,2013-06-13 04:32:00,
2013-06-13 00:34:00,60.1,53.2,29.80,NW,314,4.0,4.0,78,0.00,,---,0.02,VWS V14.01,2013-06-13 04:34:00,
2013-06-13 00:37:00,60.1,53.2,29.80,North,359,1.0,4.0,78,0.00,,---,0.02,VWS V14.01,2013-06-13 04:37:00,
2013-06-13 00:38:00,60.1,53.2,29.80,NNW,337,2.0,4.0,78,0.00,,---,0.02,VWS V14.01,2013-06-13 04:38:00,
2013-06-13 00:40:00,60.2,53.3,29.80,NNW,345,1.0,4.0,78,0.00,,---,0.02,VWS V14.01,2013-06-13 04:40:00,
2013-06-13 00:43:00,60.2,53.3,29.79,NNW,346,0.0,4.0,78,0.00,,---,0.02,VWS V14.01,2013-06-13 04:43:00,
2013-06-13 00:44:00,60.2,53.3,29.79,NNW,345,0.0,4.0,78,0.00,,---,0.02,VWS V14.01,2013-06-13 04:44:00,
2013-06-13 00:46:00,60.2,53.7,29.79,SE,129,0.0,4.0,79,0.00,,---,0.02,VWS V14.01,2013-06-13 04:46:00,
2013-06-13 00:48:00,60.1,53.6,29.79,SSE,152,1.0,4.0,79,0.00,,---,0.02,VWS V14.01,2013-06-13 04:48:00,
2013-06-13 00:49:00,60.2,53.7,29.79,SE,124,1.0,4.0,79,0.00,,---,0.02,VWS V14.01,2013-06-13 04:49:00,
2013-06-13 00:50:00,60.2,53.7,29.79,ESE,121,2.0,4.0,79,0.00,,---,0.02,VWS V14.01,2013-06-13 04:50:00,
2013-06-13 00:52:00,60.1,54.3,29.79,ESE,120,1.0,4.0,81,0.00,,---,0.02,VWS V14.01,2013-06-13 04:52:00,
2013-06-13 00:53:00,60.1,54.3,29.79,ESE,122,1.0,4.0,81,0.00,,---,0.02,VWS V14.01,2013-06-13 04:53:00,
2013-06-13 00:54:00,60.1,54.3,29.79,SE,125,0.0,4.0,81,0.00,,---,0.02,VWS V14.01,2013-06-13 04:54:00,
2013-06-13 00:55:00,60.0,54.2,29.79,SE,124,0.0,4.0,81,0.00,,---,0.02,VWS V14.01,2013-06-13 04:55:00,
2013-06-13 00:59:00,59.9,53.4,29.79,SE,142,0.0,2.0,79,0.00,,---,0.00,VWS V14.01,2013-06-13 04:59:00,
2013-06-13 01:00:00,59.9,53.4,29.79,SE,141,0.0,2.0,79,0.00,,---,0.00,VWS V14.01,2013-06-13 05:00:00,
2013-06-13 01:01:00,59.9,53.4,29.79,SE,125,0.0,2.0,79,0.00,,---,0.00,VWS V14.01,2013-06-13 05:01:00,
2013-06-13 01:04:00,59.9,53.7,29.79,SSE,160,0.0,3.0,80,0.00,,---,0.00,VWS V14.01,2013-06-13 05:04:00,
2013-06-13 01:05:00,59.9,53.7,29.79,SSE,153,0.0,3.0,80,0.00,,---,0.00,VWS V14.01,2013-06-13 05:05:00,
2013-06-13 01:06:00,59.9,53.7,29.79,SE,142,0.0,3.0,80,0.00,,---,0.00,VWS V14.01,2013-06-13 05:06:00,
2013-06-13 01:08:00,59.9,53.7,29.79,SE,139,0.0,3.0,80,0.00,,---,0.00,VWS V14.01,2013-06-13 05:08:00,
2013-06-13 01:10:00,59.9,54.1,29.79,SE,131,1.0,3.0,81,0.00,,---,0.00,VWS V14.01,2013-06-13 05:10:00,
2013-06-13 01:11:00,59.9,54.4,29.79,SSE,160,0.0,3.0,82,0.00,,---,0.00,VWS V14.01,2013-06-13 05:11:00,
2013-06-13 01:14:00,59.8,54.0,29.79,SSE,166,1.0,3.0,81,0.00,,---,0.00,VWS V14.01,2013-06-13 05:14:00,
2013-06-13 01:16:00,59.7,53.9,29.79,SSE,160,0.0,3.0,81,0.00,,---,0.00,VWS V14.01,2013-06-13 05:16:00,
2013-06-13 01:17:00,59.7,53.9,29.79,SSE,163,1.0,3.0,81,0.00,,---,0.00,VWS V14.01,2013-06-13 05:17:00,
2013-06-13 01:19:00,59.7,53.9,29.79,South,172,2.0,3.0,81,0.00,,---,0.00,VWS V14.01,2013-06-13 05:19:00,
2013-06-13 01:21:00,59.7,53.9,29.79,SSE,163,1.0,3.0,81,0.00,,---,0.00,VWS V14.01,2013-06-13 05:21:00,
2013-06-13 01:22:00,59.7,53.9,29.79,SSE,163,1.0,3.0,81,0.00,,---,0.00,VWS V14.01,2013-06-13 05:22:00,
2013-06-13 01:23:00,59.6,53.8,29.79,SSE,163,0.0,3.0,81,0.00,,---,0.00,VWS V14.01,2013-06-13 05:23:00,
2013-06-13 01:24:00,59.6,53.8,29.79,SSE,156,0.0,3.0,81,0.00,,---,0.00,VWS V14.01,2013-06-13 05:24:00,
2013-06-13 01:27:00,59.6,54.1,29.79,SSE,156,0.0,3.0,82,0.00,,---,0.00,VWS V14.01,2013-06-13 05:27:00,
2013-06-13 01:28:00,59.5,54.0,29.79,SSE,150,0.0,0.0,82,0.00,,---,0.00,VWS V14.01,2013-06-13 05:28:00,
2013-06-13 01:29:00,59.5,54.0,29.79,SSE,150,0.0,0.0,82,0.00,,---,0.00,VWS V14.01,2013-06-13 05:29:00,
2013-06-13 01:30:00,59.5,54.0,29.79,SSE,150,0.0,0.0,82,0.00,,---,0.00,VWS V14.01,2013-06-13 05:30:00,
2013-06-13 01:32:00,59.5,54.0,29.79,SSE,151,0.0,0.0,82,0.00,,---,0.00,VWS V14.01,2013-06-13 05:32:00,
2013-06-13 01:33:00,59.4,53.9,29.79,SSE,151,0.0,0.0,82,0.00,,---,0.00,VWS V14.01,2013-06-13 05:33:00,
2013-06-13 01:34:00,59.4,53.9,29.80,SSE,150,0.0,0.0,82,0.00,,---,0.00,VWS V14.01,2013-06-13 05:34:00,
2013-06-13 01:35:00,59.4,54.2,29.80,SSE,151,0.0,0.0,83,0.00,,---,0.00,VWS V14.01,2013-06-13 05:35:00,
2013-06-13 01:37:00,59.3,54.2,29.79,SE,146,0.0,0.0,83,0.00,,---,0.00,VWS V14.01,2013-06-13 05:37:00,
2013-06-13 01:39:00,59.3,54.2,29.79,SE,146,0.0,0.0,83,0.00,,---,0.00,VWS V14.01,2013-06-13 05:39:00,
2013-06-13 01:41:00,59.2,54.4,29.79,SE,146,0.0,0.0,84,0.00,,---,0.00,VWS V14.01,2013-06-13 05:41:00,
2013-06-13 01:43:00,59.1,54.6,29.79,SE,146,0.0,0.0,85,0.00,,---,0.00,VWS V14.01,2013-06-13 05:43:00,
2013-06-13 01:44:00,59.0,54.2,29.79,SSE,147,0.0,0.0,84,0.00,,---,0.00,VWS V14.01,2013-06-13 05:44:00,
2013-06-13 01:46:00,58.8,54.0,29.79,SSE,147,0.0,0.0,84,0.00,,---,0.00,VWS V14.01,2013-06-13 05:46:00,
2013-06-13 01:48:00,58.7,53.9,29.79,SE,146,0.0,0.0,84,0.00,,---,0.00,VWS V14.01,2013-06-13 05:48:00,
2013-06-13 01:51:00,58.5,54.0,29.79,SE,146,0.0,0.0,85,0.00,,---,0.00,VWS V14.01,2013-06-13 05:51:00,
2013-06-13 01:52:00,58.5,54.0,29.79,SSE,147,0.0,0.0,85,0.00,,---,0.00,VWS V14.01,2013-06-13 05:52:00,
2013-06-13 01:53:00,58.4,53.9,29.79,SE,146,0.0,0.0,85,0.00,,---,0.00,VWS V14.01,2013-06-13 05:53:00,
2013-06-13 01:56:00,58.2,54.0,29.79,SE,146,0.0,0.0,86,0.00,,---,0.00,VWS V14.01,2013-06-13 05:56:00,
2013-06-13 01:57:00,58.2,54.0,29.79,SE,146,0.0,0.0,86,0.00,,---,0.00,VWS V14.01,2013-06-13 05:57:00,
2013-06-13 01:58:00,58.1,53.9,29.79,SE,143,0.0,1.0,86,0.00,,---,0.00,VWS V14.01,2013-06-13 05:58:00,
2013-06-13 01:59:00,58.1,54.3,29.79,SE,143,0.0,0.0,87,0.00,,---,0.00,VWS V14.01,2013-06-13 05:59:00,
2013-06-13 02:00:00,58.0,54.2,29.79,SE,143,0.0,1.0,87,0.00,,---,0.00,VWS V14.01,2013-06-13 06:00:00,
2013-06-13 02:01:00,57.9,54.1,29.79,SE,143,0.0,1.0,87,0.00,,---,0.00,VWS V14.01,2013-06-13 06:01:00,
2013-06-13 02:02:00,57.8,54.0,29.79,SE,143,0.0,1.0,87,0.00,,---,0.00,VWS V14.01,2013-06-13 06:02:00,
2013-06-13 02:03:00,57.7,53.9,29.79,SE,143,0.0,1.0,87,0.00,,---,0.00,VWS V14.01,2013-06-13 06:03:00,
2013-06-13 02:05:00,57.5,53.7,29.79,SE,143,0.0,1.0,87,0.00,,---,0.00,VWS V14.01,2013-06-13 06:05:00,
2013-06-13 02:06:00,57.5,53.7,29.79,SE,143,0.0,1.0,87,0.00,,---,0.00,VWS V14.01,2013-06-13 06:06:00,
2013-06-13 02:07:00,57.4,53.9,29.79,SE,143,0.0,1.0,88,0.00,,---,0.00,VWS V14.01,2013-06-13 06:07:00,
2013-06-13 02:09:00,57.2,53.7,29.79,SE,143,0.0,1.0,88,0.00,,---,0.00,VWS V14.01,2013-06-13 06:09:00,
2013-06-13 02:11:00,57.1,53.6,29.79,SE,143,0.0,1.0,88,0.00,,---,0.00,VWS V14.01,2013-06-13 06:11:00,
2013-06-13 02:12:00,57.0,53.5,29.79,SE,143,0.0,1.0,88,0.00,,---,0.00,VWS V14.01,2013-06-13 06:12:00,
2013-06-13 02:13:00,57.0,53.5,29.79,SE,143,0.0,1.0,88,0.00,,---,0.00,VWS V14.01,2013-06-13 06:13:00,
2013-06-13 02:14:00,56.9,53.7,29.79,SE,143,0.0,1.0,89,0.00,,---,0.00,VWS V14.01,2013-06-13 06:14:00,
2013-06-13 02:16:00,56.8,53.6,29.79,SE,143,0.0,1.0,89,0.00,,---,0.00,VWS V14.01,2013-06-13 06:16:00,
2013-06-13 02:17:00,56.8,53.6,29.78,SE,143,0.0,1.0,89,0.00,,---,0.00,VWS V14.01,2013-06-13 06:17:00,
2013-06-13 02:18:00,56.8,53.6,29.78,SE,143,1.0,1.0,89,0.00,,---,0.00,VWS V14.01,2013-06-13 06:18:00,
2013-06-13 02:19:00,56.7,53.5,29.79,SE,134,1.0,1.0,89,0.00,,---,0.00,VWS V14.01,2013-06-13 06:19:00,
2013-06-13 02:21:00,56.6,53.4,29.79,ESE,111,2.0,3.0,89,0.00,,---,0.00,VWS V14.01,2013-06-13 06:21:00,
2013-06-13 02:23:00,56.6,53.4,29.79,East,100,4.0,4.0,89,0.00,,---,0.00,VWS V14.01,2013-06-13 06:23:00,
2013-06-13 02:25:00,56.3,53.1,29.79,ESE,110,1.0,4.0,89,0.00,,---,0.00,VWS V14.01,2013-06-13 06:25:00,
2013-06-13 02:28:00,55.9,53.0,29.79,ESE,115,0.0,4.0,90,0.00,,---,0.00,VWS V14.01,2013-06-13 06:28:00,
2013-06-13 02:29:00,55.8,52.9,29.79,ESE,109,2.0,3.0,90,0.00,,---,0.00,VWS V14.01,2013-06-13 06:29:00,
2013-06-13 02:30:00,55.7,52.8,29.79,ESE,110,2.0,3.0,90,0.00,,---,0.00,VWS V14.01,2013-06-13 06:30:00,
2013-06-13 02:33:00,55.4,52.8,29.79,ESE,113,2.0,3.0,91,0.00,,---,0.00,VWS V14.01,2013-06-13 06:33:00,
2013-06-13 02:35:00,55.4,52.8,29.79,ESE,113,2.0,3.0,91,0.00,,---,0.00,VWS V14.01,2013-06-13 06:35:00,
2013-06-13 02:36:00,55.3,52.7,29.79,ESE,113,1.0,3.0,91,0.00,,---,0.00,VWS V14.01,2013-06-13 06:36:00,
2013-06-13 02:38:00,55.2,52.9,29.79,ESE,113,1.0,3.0,92,0.00,,---,0.00,VWS V14.01,2013-06-13 06:38:00,
2013-06-13 02:40:00,55.2,52.9,29.79,ESE,118,0.0,3.0,92,0.00,,---,0.00,VWS V14.01,2013-06-13 06:40:00,
2013-06-13 02:41:00,55.3,53.0,29.79,SSE,163,1.0,3.0,92,0.00,,---,0.00,VWS V14.01,2013-06-13 06:41:00,
2013-06-13 02:42:00,55.3,53.0,29.79,SSE,165,1.0,3.0,92,0.00,,---,0.00,VWS V14.01,2013-06-13 06:42:00,
2013-06-13 02:44:00,55.6,53.3,29.79,SSE,166,1.0,3.0,92,0.00,,---,0.00,VWS V14.01,2013-06-13 06:44:00,
2013-06-13 02:45:00,55.8,53.5,29.79,SSE,163,1.0,3.0,92,0.00,,---,0.00,VWS V14.01,2013-06-13 06:45:00,
2013-06-13 02:47:00,56.1,53.5,29.79,SSE,164,0.0,3.0,91,0.00,,---,0.00,VWS V14.01,2013-06-13 06:47:00,
2013-06-13 02:49:00,56.2,53.6,29.79,SSE,160,0.0,3.0,91,0.00,,---,0.00,VWS V14.01,2013-06-13 06:49:00,
2013-06-13 02:50:00,56.3,53.4,29.79,SSE,160,0.0,3.0,90,0.00,,---,0.00,VWS V14.01,2013-06-13 06:50:00,
2013-06-13 02:53:00,56.3,53.4,29.79,SSE,160,0.0,3.0,90,0.00,,---,0.00,VWS V14.01,2013-06-13 06:53:00,
2013-06-13 02:55:00,56.3,53.1,29.79,SSE,158,0.0,3.0,89,0.00,,---,0.00,VWS V14.01,2013-06-13 06:55:00,
2013-06-13 02:56:00,56.2,53.0,29.79,SSE,158,0.0,3.0,89,0.00,,---,0.00,VWS V14.01,2013-06-13 06:56:00,
2013-06-13 02:59:00,55.9,52.7,29.79,SSE,156,0.0,0.0,89,0.00,,---,0.00,VWS V14.01,2013-06-13 06:59:00,
2013-06-13 03:00:00,55.8,52.6,29.79,SSE,156,0.0,0.0,89,0.00,,---,0.00,VWS V14.01,2013-06-13 07:00:00,
2013-06-13 03:01:00,55.6,52.4,29.79,SSE,156,0.0,0.0,89,0.00,,---,0.00,VWS V14.01,2013-06-13 07:01:00,
2013-06-13 03:03:00,55.2,52.0,29.79,SSE,151,0.0,0.0,89,0.00,,---,0.00,VWS V14.01,2013-06-13 07:03:00,
2013-06-13 03:06:00,54.9,52.0,29.79,SSE,151,0.0,0.0,90,0.00,,---,0.00,VWS V14.01,2013-06-13 07:06:00,
2013-06-13 03:08:00,54.8,51.9,29.79,SSE,151,0.0,0.0,90,0.00,,---,0.00,VWS V14.01,2013-06-13 07:08:00,
2013-06-13 03:09:00,54.7,51.8,29.79,SSE,150,0.0,0.0,90,0.00,,---,0.00,VWS V14.01,2013-06-13 07:09:00,
2013-06-13 03:11:00,54.6,52.0,29.79,SSE,150,0.0,0.0,91,0.00,,---,0.00,VWS V14.01,2013-06-13 07:11:00,
2013-06-13 03:12:00,54.6,52.0,29.79,SSE,151,0.0,0.0,91,0.00,,---,0.00,VWS V14.01,2013-06-13 07:12:00,
2013-06-13 03:13:00,54.5,51.9,29.79,SSE,150,0.0,0.0,91,0.00,,---,0.00,VWS V14.01,2013-06-13 07:13:00,
2013-06-13 03:15:00,54.5,52.2,29.80,SSE,151,0.0,0.0,92,0.00,,---,0.00,VWS V14.01,2013-06-13 07:15:00,
2013-06-13 03:17:00,54.4,52.1,29.80,SSE,151,0.0,0.0,92,0.00,,---,0.00,VWS V14.01,2013-06-13 07:17:00,
2013-06-13 03:18:00,54.4,52.1,29.80,SSE,150,0.0,0.0,92,0.00,,---,0.00,VWS V14.01,2013-06-13 07:18:00,
2013-06-13 22:30:00,56.2,54.8,29.74,WNW,292,0.0,2.0,95,0.01,,---,0.07,VWS V14.01,2013-06-14 02:30:00,
2013-06-13 23:00:00,55.9,54.8,29.73,NW,304,0.0,0.0,96,0.00,,---,0.07,VWS V14.01,2013-06-14 03:00:00,
2013-06-13 23:01:00,55.9,54.8,29.73,NW,304,0.0,0.0,96,0.00,,---,0.07,VWS V14.01,2013-06-14 03:01:00,
2013-06-13 23:02:00,55.9,54.8,29.73,NW,304,0.0,0.0,96,0.00,,---,0.07,VWS V14.01,2013-06-14 03:02:00,
2013-06-13 23:03:00,55.9,54.8,29.73,NW,304,1.0,1.0,96,0.00,,---,0.07,VWS V14.01,2013-06-14 03:03:00,
2013-06-13 23:04:00,55.9,54.8,29.73,NW,308,1.0,1.0,96,0.00,,---,0.07,VWS V14.01,2013-06-14 03:04:00,
2013-06-13 23:05:00,55.9,54.5,29.73,NW,312,1.0,2.0,95,0.00,,---,0.07,VWS V14.01,2013-06-14 03:05:00,
2013-06-13 23:06:00,55.8,54.4,29.73,NW,312,1.0,2.0,95,0.00,,---,0.07,VWS V14.01,2013-06-14 03:06:00,
2013-06-13 23:59:00,55.9,54.8,29.73,NW,304,0.0,0.0,96,0.00,,---,0.07,VWS V14.01,2013-06-14 03:59:00,